TimeMDT,TemperatureF,Dew PointF,Humidity,Sea Level PressureIn,VisibilityMPH,Wind Direction,Wind SpeedMPH,Gust SpeedMPH,PrecipitationIn,Events,Conditions,WindDirDegrees,DateUTC
12:56 AM,30.9,23.0,72,30.00,10.0,SE,12.7,-,N/A,,Overcast,130,2012-11-02 06:56:00
1:56 AM,30.9,23.0,72,30.01,10.0,ESE,11.5,-,N/A,,Overcast,120,2012-11-02 07:56:00
2:56 AM,30.0,23.0,75,30.01,10.0,SE,8.1,-,N/A,,Overcast,130,2012-11-02 08:56:00
3:56 AM,30.0,23.0,75,30.01,9.0,SE,11.5,-,N/A,,Overcast,130,2012-11-02 09:56:00
4:56 AM,28.9,21.9,75,30.01,6.0,SSE,11.5,-,N/A,,Haze,150,2012-11-02 10:56:00
5:49 AM,28.4,21.2,74,29.94,7.0,SSE,13.8,-,0.00,,Overcast,150,2012-11-02 11:49:00
5:56 AM,28.0,21.9,78,30.01,6.0,SSE,12.7,-,0.00,,Overcast,150,2012-11-02 11:56:00
6:13 AM,28.4,24.8,86,29.93,5.0,SE,10.4,-,0.00,Rain,Light Freezing Rain,140,2012-11-02 12:13:00
6:40 AM,28.4,24.8,86,29.94,5.0,SSE,11.5,-,0.00,,Overcast,150,2012-11-02 12:40:00
6:56 AM,28.0,25.0,88,30.04,5.0,South,8.1,-,0.00,,Overcast,170,2012-11-02 12:56:00
7:56 AM,28.0,25.0,88,30.04,4.0,SSE,11.5,-,0.00,,Overcast,150,2012-11-02 13:56:00
8:17 AM,28.4,24.8,86,29.95,2.5,SSE,10.4,-,0.00,Rain,Light Freezing Rain,150,2012-11-02 14:17:00
8:44 AM,28.4,24.8,86,29.96,2.5,SSE,11.5,-,0.00,,Overcast,160,2012-11-02 14:44:00
8:56 AM,28.0,26.1,92,30.04,2.5,SSE,11.5,-,0.00,,Overcast,160,2012-11-02 14:56:00
9:05 AM,28.4,26.6,93,29.96,2.5,South,10.4,-,0.00,Rain,Light Freezing Rain,170,2012-11-02 15:05:00
9:56 AM,28.9,27.0,92,30.04,2.0,SSE,9.2,-,0.02,Rain,Light Freezing Rain,160,2012-11-02 15:56:00
10:08 AM,30.2,28.4,93,29.96,2.0,SSE,10.4,-,0.00,Rain,Light Freezing Rain,160,2012-11-02 16:08:00
10:32 AM,30.2,28.4,93,29.96,3.0,South,8.1,-,0.01,Rain,Light Freezing Rain,180,2012-11-02 16:32:00
10:56 AM,30.9,28.9,92,30.05,3.0,SSE,6.9,-,0.01,,Overcast,160,2012-11-02 16:56:00
11:35 AM,30.2,28.4,93,29.97,2.0,South,6.9,-,N/A,,Overcast,170,2012-11-02 17:35:00
11:44 AM,30.2,30.2,100,29.97,1.2,SSE,8.1,-,N/A,,Overcast,160,2012-11-02 17:44:00
11:56 AM,30.9,30.0,96,30.05,0.8,SE,6.9,-,N/A,,Overcast,140,2012-11-02 17:56:00
12:23 PM,32.0,30.2,93,29.97,1.0,SE,8.1,-,N/A,,Overcast,140,2012-11-02 18:23:00
12:56 PM,34.0,33.1,96,30.04,2.0,South,4.6,-,N/A,,Overcast,170,2012-11-02 18:56:00
1:56 PM,37.0,36.0,96,30.03,2.5,Calm,Calm,-,N/A,,Overcast,0,2012-11-02 19:56:00
2:56 PM,39.0,37.9,96,30.02,2.5,Calm,Calm,-,N/A,,Overcast,0,2012-11-02 20:56:00
3:08 PM,39.2,37.4,93,29.96,3.0,West,4.6,-,N/A,,Overcast,270,2012-11-02 21:08:00
3:56 PM,41.0,39.0,93,30.04,5.0,West,5.8,-,N/A,,Overcast,280,2012-11-02 21:56:00
4:12 PM,41.0,39.2,93,29.97,7.0,WNW,9.2,-,N/A,,Overcast,300,2012-11-02 22:12:00
4:56 PM,39.9,39.0,97,30.05,5.0,NW,15.0,20.7,0.01,Rain,Light Rain,310,2012-11-02 22:56:00
5:33 PM,39.2,37.4,93,29.99,10.0,WNW,13.8,-,0.00,,Overcast,300,2012-11-02 23:33:00
5:49 PM,39.2,37.4,93,30.00,10.0,WNW,11.5,-,0.00,,Overcast,300,2012-11-02 23:49:00
5:56 PM,39.0,37.9,96,30.07,10.0,WNW,10.4,-,0.00,,Overcast,300,2012-11-02 23:56:00
6:34 PM,39.2,37.4,93,30.02,10.0,NW,10.4,-,0.00,Rain,Light Rain,310,2012-11-03 00:34:00
6:51 PM,39.2,37.4,93,30.02,9.0,WNW,8.1,-,0.00,Rain,Light Rain,300,2012-11-03 00:51:00
6:56 PM,39.0,37.0,93,30.09,8.0,NW,9.2,-,0.00,Rain,Light Rain,310,2012-11-03 00:56:00
7:56 PM,37.9,37.0,97,30.11,7.0,NW,8.1,-,0.00,,Overcast,310,2012-11-03 01:56:00
8:48 PM,35.6,35.6,100,30.05,2.5,NNW,10.4,-,0.01,,Overcast,330,2012-11-03 02:48:00
8:56 PM,35.1,34.0,96,30.14,2.5,NW,9.2,-,0.01,,Overcast,320,2012-11-03 02:56:00
9:07 PM,35.6,35.6,100,30.06,4.0,NNW,9.2,-,0.00,,Overcast,330,2012-11-03 03:07:00
9:48 PM,35.6,35.6,100,30.06,10.0,WNW,9.2,-,0.00,,Overcast,300,2012-11-03 03:48:00
9:56 PM,36.0,35.1,97,30.14,7.0,WNW,11.5,-,0.00,,Overcast,300,2012-11-03 03:56:00
10:16 PM,35.6,35.6,100,30.07,2.5,WNW,11.5,-,N/A,,Overcast,300,2012-11-03 04:16:00
10:45 PM,35.6,35.6,100,30.08,3.0,WNW,15.0,-,0.00,,Overcast,300,2012-11-03 04:45:00
10:56 PM,35.1,34.0,96,30.15,10.0,WNW,13.8,-,0.00,,Overcast,290,2012-11-03 04:56:00
11:05 PM,35.6,33.8,93,30.08,10.0,WNW,12.7,-,N/A,,Overcast,290,2012-11-03 05:05:00
11:17 PM,35.6,33.8,93,30.09,9.0,WNW,15.0,20.7,N/A,,Overcast,300,2012-11-03 05:17:00
11:56 PM,34.0,33.1,96,30.16,9.0,WNW,9.2,-,N/A,,Overcast,300,2012-11-03 05:56:00